#timestamp,LO_Frequency,Hit,StdDev 
1671757215.1,286047000.5,P
1671757235.8,286047000.8,N
1671757255.7,286046999.4,N
1671757275.5,286046998.2,Y
1671757295.4,286047000.5,P
1671757315.2,286047000.3,N
1671757335.0,286047000.5,N
1671757335.9,286047000.5,N
1671757355.8,286047000.7,Y
1671757375.6,286047000.1,P
1671757395.4,286047004.1,P
1671757415.3,286047003.2,N
1671757435.1,286047002.4,N
1671757455.9,286047001.2,N
1671757475.7,286047002.8,N
1671757495.5,286046999.7,N
1671757515.4,286047002.8,N
1671757535.2,286047001.4,N
1671757555.0,286047001.8,N
1671757555.9,286047001.8,N
1671757575.8,286047000.9,N
1671757595.6,286047000.2,N
1671757615.5,286047000.0,N
1671757635.3,286047000.5,N
1671757655.1,286046998.3,N
1671757675.9,286046999.9,N
1671757695.7,286047001.0,N
1671757715.5,286047002.7,N
1671757735.4,286047000.8,N
1671757755.2,286046998.1,N
1671757775.1,286047000.8,N
1671757776.0,286047000.8,N
1671757795.8,286046998.3,N
1671757815.6,286046998.4,N
1671757835.5,286046998.1,N
1671757855.3,286046999.0,N
1671757875.1,286046997.1,N
1671757895.9,286046998.3,N
1671757915.7,286046996.9,N
1671757935.6,286046997.0,N
1671757955.4,286046998.6,N
1671757975.2,286046999.2,N
1671757995.1,286046999.5,N
1671757996.0,286046999.5,N
1671758015.8,286046998.8,N
1671758035.7,286046998.1,N
1671758055.5,286046998.6,N
1671758075.3,286047000.0,N
1671758095.2,286047000.0,N
1671758115.0,286046998.4,N
1671758115.9,286046998.4,N
1671758135.7,286046999.9,N
1671758155.6,286047000.5,N
1671758175.4,286046999.8,N
1671758195.3,286047000.9,N
1671758215.1,286046998.4,N
1671758216.0,286046998.4,N
1671758235.8,286046998.4,N
1671758255.7,286047000.6,N
1671758275.5,286046999.8,N
1671758295.3,286047001.9,N
1671758315.2,286047002.7,N
1671758335.0,286047000.5,N
1671758335.9,286047000.5,N
1671758355.8,286046999.9,N
1671758375.6,286046996.6,N
1671758395.4,286046996.9,N
1671758415.3,286046997.3,N
1671758435.1,286046996.6,N
1671758455.9,286046996.6,N
1671758475.7,286046999.6,N
1671758495.5,286046996.7,N
1671758515.4,286046998.1,N
1671758535.2,286046998.3,N
1671758555.0,286047000.8,N
1671758555.9,286047000.8,N
1671758575.8,286047001.0,N
1671758595.6,286047002.7,N
1671758615.5,286046999.9,N
1671758635.3,286047001.0,N
1671758655.1,286047001.0,N
1671758675.9,286046998.7,N
1671758695.7,286046998.8,N
1671758715.5,286047000.2,N
1671758735.4,286047001.0,N
1671758755.2,286047002.6,N
1671758775.1,286047002.0,N
1671758776.0,286047002.0,N
1671758795.8,286047001.3,N
1671758815.6,286047001.7,N
1671758835.5,286046999.8,N
1671758855.3,286047002.4,N
1671758875.1,286046999.7,N
1671758895.9,286047000.9,N
1671758915.7,286047001.0,N
1671758935.6,286047000.3,N
1671758955.4,286046998.5,N
1671758975.2,286046999.0,N
1671758995.1,286046998.8,N
1671758996.0,286046998.8,N
1671759045.8,286046996.8,E
1671759055.8,286046998.2,N
1671759075.6,286047001.7,P
1671759095.4,286047002.0,N
1671759115.3,286047004.4,N
1671759135.1,286047001.3,N
1671759155.9,286047002.9,N
1671759175.7,286047005.7,Y
1671759195.5,286047004.3,P
1671759215.4,286047003.6,N
1671759235.2,286047004.0,P
1671759255.0,286047002.4,N
1671759255.9,286047002.4,N
1671759275.8,286047000.4,N
1671759295.6,286047002.3,N
1671759315.5,286047001.6,N
1671759335.3,286047002.2,N
1671759355.1,286046999.8,N
1671759375.9,286047004.4,Y
1671759395.7,286047002.8,P
1671759415.5,286047002.7,P
1671759435.4,286047000.4,N
1671759455.2,286047000.3,N
1671759475.1,286047000.4,N
1671759476.0,286047000.4,N
1671759495.8,286047002.1,N
1671759515.6,286047001.5,N
1671759535.5,286047000.9,N
1671759555.3,286046999.9,N
1671759575.2,286046996.6,Y
1671759595.9,286046995.1,P
1671759615.7,286046995.3,N
1671759635.6,286046997.6,N
1671759655.4,286046997.2,N
1671759675.3,286046997.7,N
1671759695.1,286046997.9,N
1671759696.0,286046997.9,N
1671759715.8,286046995.0,N
1671759735.7,286046994.9,N
1671759755.5,286046997.2,N
1671759775.4,286046997.4,N
1671759795.2,286046993.3,Y
1671759815.0,286046999.2,P
1671759815.9,286046999.2,N
1671759835.8,286047000.9,N
1671759855.6,286046998.2,N
1671759875.5,286047000.0,N
1671759895.3,286047000.4,N
1671759915.1,286046999.9,N
1671759935.9,286046998.2,N
1671759955.7,286046996.7,N
1671759975.5,286046999.4,N
1671759995.4,286046999.2,N
1671760015.2,286046999.1,N
1671760035.1,286046999.0,N
1671760036.0,286046999.0,N
1671760055.8,286047000.7,N
1671760075.6,286046998.5,N
1671760095.5,286047000.5,N
1671760115.3,286046999.0,N
1671760135.1,286046999.6,N
1671760155.9,286047000.3,N
1671760175.7,286046997.8,N
1671760195.6,286046995.4,Y
1671760215.4,286046996.6,P
1671760235.2,286047001.1,N
1671760255.1,286047000.8,N
1671760256.0,286047000.8,N
1671760275.8,286046999.1,N
1671760295.6,286046998.5,N
1671760315.5,286047001.1,N
1671760335.3,286046998.4,N
1671760355.2,286047000.5,N
1671760375.9,286047000.5,N
1671760395.7,286047001.0,N
1671760415.6,286047000.1,N
1671760435.4,286047001.1,N
1671760455.2,286047000.8,N
1671760475.1,286046998.3,N
1671760476.0,286046998.3,N
1671760495.8,286046996.6,N
1671760515.7,286047000.9,N
1671760535.5,286046998.1,N
1671760555.3,286046999.7,N
1671760575.2,286047002.1,N
1671760595.0,286046999.8,N
1671760595.9,286046999.8,N
1671760615.8,286047000.8,N
1671760635.6,286046999.0,N
1671760655.5,286047000.7,N
1671760675.3,286047003.6,N
1671760695.1,286047002.3,N
1671760715.9,286047000.4,N
1671760735.7,286046999.7,N
1671760755.5,286047001.5,N
1671760775.4,286047002.8,N
1671760795.2,286047000.5,N
